Tracking 28790 objects as of 19-Apr-2024
HD Live streaming from Space Station
objects crossing your sky now

FENGYUN 1C DEB

Track FENGYUN 1C DEB now!
10-day predictions


NORAD ID: 32088
Int'l Code: 1999-025CQE
Perigee: 837.9 km
Apogee: 1,534.9 km
Inclination: 102.4 °
Period: 109.0 minutes
Semi major axis: 7557 km
RCS: 0.0006 m2 (small)
Launch date: May 10, 1999
Source: People's Republic of China (PRC)
Launch site: Taiyaun Space Center, China (TSC)

Note: This is SATELLITE DEBRIS
Your satellite tracking list
Your tracking list is empty




NASA's NSSDC Master Catalog

Two Line Element Set (TLE):
1 32088U 99025CQE 24110.12471137  .00006607  00000-0  92606-2 0  9994
2 32088 102.3896 215.7928 0461171 202.1768 155.8803 13.21434492804333
Source of the keplerian elements: AFSPC